METEOR 2-3

导读 | 星芒AI

METEOR 2-3 是俄罗斯于1988年发射的一颗气象卫星,属于 METEOR 2 系列,主要用于气象观测和地球资源监测。该卫星搭载了多光谱扫描仪和电视摄像机等设备,能够获取云层、地表温度和植被覆盖等数据。它运行在近地太阳同步轨道,为天气预报和环境研究提供了重要支持。尽管已退役,但 METEOR 2-3 在苏联气象卫星发展史上具有重要意义。

基本信息
目录编号:
10514
目录名称:
METEOR 2-3
国际标识:
1977-117A
轨道中心:
EARTH
卫星名称:
METEOR 2-3
卫星全名:
--
卫星状态:
在轨 (已飞行17531 天)
发射日期:
1977-12-14 UTC
国别 :
俄罗斯(独联体) (CIS)
星等 :
--
轨道信息
数据来源 国际轨道数据
星历时间: 2025-12-13T01:37:44+0800
16小时前
查看轨道信息
半长轴: 7233.471km
偏心率: 0.0024061
轨道倾角: 81.207°
近地点辐角 140.760°
升交点赤经 68.844°
平近点角 219.532°
近地点: 837.931km
远地点: 872.741km
周期: 102.042分钟
每日圈数: 14.111809
详细信息
使用方式:
暂无
2D轨道图
3D轨道图
轨道高度分析图
轨道倾角分析图
轨道综合分析图
查看轨道综合分析图